Weather History for Cork, Ireland

Change the Weather History Date:

Sunday, February 2, 2014

  Actual Average Record
Temperature  
Mean Temperature 42 °F -  
Max Temperature 48 °F 46 °F 53 °F (2004)
Min Temperature 35 °F 37 °F 28 °F (2009)
Degree Days  
Heating Degree Days 24    
Moisture  
Dew Point 39 °F    
Average Humidity 87    
Maximum Humidity 93    
Minimum Humidity 75    
Precipitation  
Precipitation 0.02 in 0.15 in - ()
Sea Level Pressure  
Sea Level Pressure 29.43 in    
Wind  
Wind Speed 15 mph ()    
Max Wind Speed 30 mph    
Max Gust Speed 48 mph    
Visibility 8.4 miles    
Events Rain    
Averages and records for this station are not official NWS values.
T = Trace of Precipitation, MM = Missing Value Source: Averaged Metar Reports

Daily Weather History Graph

Daily Weather History Graph

Search for Another Location

Airport:

Trip Planner

Search our weather history database for the weather conditions in past years. The results will help you decide how hot, cold, wet, or windy it might be!

Date:

Astronomy

Feb. 02, 2014 Rise Set
Actual Time 8:11 AM GMT 5:24 PM GMT
Civil Twilight 7:35 AM GMT 6:00 PM GMT
Nautical Twilight 6:55 AM GMT 6:40 PM GMT
Astronomical Twilight 6:15 AM GMT 7:20 PM GMT
Moon 9:02 AM GMT (2/2) 9:24 PM GMT (2/2)
Length of Visible Light 10h 24m
Length of Day
9h 12m
Waxing Crescent, 10% of the Moon is Illuminated
Feb 2
Waxing Crescent
Feb 6
First Quarter
Feb 14
Full
Feb 22
Last Quarter
Mar 1
New

Hourly Weather History & Observations

Time (GMT) Temp. Windchill Dew Point Humidity Pressure Visibility Wind Dir Wind Speed Gust Speed Precip Events Conditions
12:00 AM 40 °F - 36 °F 82% 29.35 in 12 mi West 22.4 mph - - Rain Light Rain Showers
12:00 AM 39.2 °F 29.0 °F 37.4 °F 93% 29.33 in 6.2 mi West 21.9 mph - N/A   Mostly Cloudy
12:30 AM 39.2 °F 29.8 °F 35.6 °F 87% 29.33 in 6.2 mi West 18.4 mph - N/A   Partly Cloudy
1:00 AM 39 °F - 35 °F 79% 29.39 in 12 mi WSW 15.7 mph - -   Scattered Clouds
1:00 AM 39.2 °F 30.8 °F 35.6 °F 87% 29.36 in 6.2 mi WSW 15.0 mph - N/A   Partly Cloudy
1:30 AM 37.4 °F 29.3 °F 33.8 °F 87% 29.36 in 6.2 mi WSW 12.7 mph - N/A   Partly Cloudy
2:00 AM 38 °F - 33 °F 77% 29.39 in 12 mi WSW 13.4 mph - -   Scattered Clouds
2:00 AM 37.4 °F 29.3 °F 33.8 °F 87% 29.36 in 6.2 mi WSW 12.7 mph - N/A   Partly Cloudy
2:30 AM 39.2 °F 32.0 °F 32.0 °F 75% 29.39 in 6.2 mi WSW 11.5 mph - N/A   Partly Cloudy
3:00 AM 36 °F - 31 °F 76% 29.43 in 12 mi SW 8.9 mph - -   Scattered Clouds
3:00 AM 37.4 °F 31.4 °F 30.2 °F 75% 29.39 in 6.2 mi SW 8.1 mph - N/A   Partly Cloudy
3:30 AM 37.4 °F 30.8 °F 32.0 °F 81% 29.42 in 6.2 mi SW 9.2 mph - N/A   Scattered Clouds
4:00 AM 36 °F - 32 °F 81% 29.46 in 12 mi WSW 8.9 mph - -   Scattered Clouds
4:00 AM 35.6 °F 28.6 °F 32.0 °F 87% 29.42 in 6.2 mi WSW 9.2 mph - N/A   Partly Cloudy
4:30 AM 37.4 °F 31.4 °F 33.8 °F 87% 29.44 in 6.2 mi SSW 8.1 mph - N/A   Mostly Cloudy
5:00 AM 36 °F - 33 °F 85% 29.47 in 12 mi WSW 11.2 mph - - Rain Light Rain Showers
5:00 AM 35.6 °F 28.0 °F 33.8 °F 93% 29.44 in 6.2 mi WSW 10.4 mph - N/A   Scattered Clouds
5:30 AM 35.6 °F 28.0 °F 33.8 °F 93% 29.44 in 6.2 mi SW 10.4 mph - N/A   Partly Cloudy
6:00 AM 35 °F - 33 °F 92% 29.49 in 12 mi SW 11.2 mph - -   Partly Cloudy
6:00 AM 35.6 °F 28.0 °F 33.8 °F 93% 29.44 in 6.2 mi SW 10.4 mph - N/A   Scattered Clouds
6:30 AM 35.6 °F 28.6 °F 33.8 °F 93% 29.47 in 6.2 mi SW 9.2 mph - N/A   Scattered Clouds
7:00 AM 35 °F - 33 °F 89% 29.51 in 12 mi SW 8.9 mph - -   Scattered Clouds
7:00 AM 35.6 °F 28.6 °F 33.8 °F 93% 29.47 in 6.2 mi SW 9.2 mph - N/A   Scattered Clouds
7:30 AM 35.6 °F 28.0 °F 33.8 °F 93% 29.47 in 6.2 mi SW 10.4 mph - N/A   Partly Cloudy
8:00 AM 38 °F - 35 °F 87% 29.53 in 19 mi SW 13.4 mph - - Rain Light Rain Showers
8:00 AM 37.4 °F 29.3 °F 35.6 °F 93% 29.50 in 6.2 mi SW 12.7 mph - N/A   Mostly Cloudy
8:30 AM 39.2 °F 33.0 °F 35.6 °F 87% 29.50 in 6.2 mi SW 9.2 mph - N/A   Mostly Cloudy
9:00 AM 39 °F - 36 °F 86% 29.54 in 22 mi SSW 6.7 mph - -   Partly Cloudy
9:00 AM 39.2 °F 34.2 °F 35.6 °F 87% 29.50 in 6.2 mi SSW 6.9 mph - N/A   Mostly Cloudy
9:30 AM 41.0 °F 34.7 °F 37.4 °F 87% 29.50 in 6.2 mi SSW 10.4 mph - N/A   Partly Cloudy
10:00 AM 42 °F - 39 °F 86% 29.54 in 22 mi SW 13.4 mph - -   Mostly Cloudy
10:00 AM 42.8 °F 36.2 °F 39.2 °F 87% 29.50 in 6.2 mi SW 12.7 mph - N/A   Mostly Cloudy
10:30 AM 42.8 °F 36.6 °F 41.0 °F 93% 29.50 in 6.2 mi SW 11.5 mph - N/A   Mostly Cloudy
11:00 AM 44 °F - 42 °F 88% 29.54 in 19 mi SW 15.7 mph - - Rain Light Rain Showers
11:00 AM 42.8 °F 35.1 °F 41.0 °F 93% 29.50 in 6.2 mi SW 16.1 mph - N/A   Scattered Clouds
11:30 AM 44.6 °F 37.2 °F 42.8 °F 93% 29.53 in 6.2 mi SW 17.3 mph - N/A   Mostly Cloudy
12:00 PM 46 °F - 44 °F 90% 29.54 in 16 mi SW 20.1 mph - - Rain Light Rain Showers
12:00 PM 46.4 °F 40.1 °F 44.6 °F 93% 29.50 in 6.2 mi SW 15.0 mph - N/A   Scattered Clouds
12:30 PM 48.2 °F - 44.6 °F 87% 29.50 in 6.2 mi SSW 19.6 mph - N/A   Mostly Cloudy
1:00 PM 47 °F - 43 °F 81% 29.52 in 25 mi SW 20.1 mph - - Rain Light Rain Showers
1:00 PM 46.4 °F 38.7 °F 42.8 °F 87% 29.50 in 6.2 mi SW 20.7 mph - N/A   Scattered Clouds
1:30 PM 46.4 °F 38.3 °F 42.8 °F 87% 29.47 in 6.2 mi SSW 23.0 mph - N/A Rain Light Rain Showers
2:00 PM 47 °F - 43 °F 79% 29.51 in 19 mi SSW 22.4 mph - - Rain Light Rain Showers
2:00 PM 46.4 °F 38.5 °F 42.8 °F 87% 29.47 in 6.2 mi SSW 21.9 mph 33.4 mph N/A Rain Light Rain Showers
2:30 PM 46.4 °F 38.7 °F 42.8 °F 87% 29.47 in 6.2 mi SSW 20.7 mph - N/A Rain Light Rain Showers
3:00 PM 46 °F - 43 °F 86% 29.49 in 9 mi SSW 17.9 mph - - Rain Light Rain Showers
3:00 PM 46.4 °F 39.2 °F 42.8 °F 87% 29.47 in 6.2 mi SSW 18.4 mph - N/A Rain Light Rain Showers
3:30 PM 46.4 °F 38.1 °F 42.8 °F 87% 29.47 in 6.2 mi SSW 24.2 mph 35.7 mph N/A Rain Light Rain Showers
4:00 PM 46 °F - 43 °F 84% 29.48 in 19 mi SSW 22.4 mph - - Rain Light Rain Showers
4:00 PM 46.4 °F 38.5 °F 42.8 °F 87% 29.44 in 6.2 mi SSW 21.9 mph - N/A Rain Light Rain Showers
4:30 PM 46.4 °F 38.7 °F 42.8 °F 87% 29.44 in 6.2 mi South 20.7 mph - N/A   Mostly Cloudy
5:00 PM 45 °F - 42 °F 85% 29.47 in 14 mi South 17.9 mph - -   Mostly Cloudy
5:00 PM 44.6 °F 37.2 °F 42.8 °F 93% 29.44 in 6.2 mi South 17.3 mph - N/A   Mostly Cloudy
5:30 PM 46.4 °F 39.5 °F 42.8 °F 87% 29.44 in 6.2 mi South 17.3 mph - N/A Rain Light Rain Showers
6:00 PM 44 °F - 42 °F 88% 29.46 in 12 mi South 17.9 mph - - Rain Light Rain Showers
6:00 PM 44.6 °F 37.2 °F 41.0 °F 87% 29.44 in 6.2 mi South 17.3 mph - N/A   Mostly Cloudy
6:30 PM 46.4 °F 39.0 °F 42.8 °F 87% 29.42 in 6.2 mi South 19.6 mph - N/A   Mostly Cloudy
7:00 PM 45 °F - 42 °F 87% 29.43 in 16 mi South 17.9 mph - -   Mostly Cloudy
7:00 PM 44.6 °F 36.9 °F 42.8 °F 93% 29.42 in 6.2 mi South 18.4 mph 32.2 mph N/A   Mostly Cloudy
7:30 PM 46.4 °F 38.5 °F 42.8 °F 87% 29.39 in 6.2 mi South 21.9 mph 38.0 mph N/A   Mostly Cloudy
8:00 PM 46 °F - 43 °F 84% 29.39 in 12 mi South 22.4 mph - -   Mostly Cloudy
8:00 PM 46.4 °F 38.3 °F 42.8 °F 87% 29.36 in 6.2 mi South 23.0 mph 35.7 mph N/A   Mostly Cloudy
8:30 PM 46.4 °F 37.7 °F 42.8 °F 87% 29.36 in 6.2 mi South 26.5 mph 39.1 mph N/A   Mostly Cloudy
9:00 PM 46 °F - 43 °F 87% 29.35 in 12 mi South 22.4 mph - -   Mostly Cloudy
9:00 PM 46.4 °F 38.3 °F 42.8 °F 87% 29.33 in 6.2 mi South 23.0 mph 35.7 mph N/A   Mostly Cloudy
9:30 PM 46.4 °F 37.4 °F 42.8 °F 87% 29.30 in 6.2 mi South 28.8 mph 43.7 mph N/A   Mostly Cloudy
10:00 PM 46 °F - 44 °F 90% 29.32 in 7 mi South 29.1 mph - - Rain Light Rain
10:00 PM 46.4 °F 37.4 °F 44.6 °F 93% 29.30 in 6.2 mi South 28.8 mph 41.4 mph N/A Rain Light Rain
10:30 PM 46.4 °F 37.2 °F 44.6 °F 93% 29.27 in 6.2 mi South 29.9 mph 48.3 mph N/A   Mostly Cloudy
11:00 PM 46 °F - 44 °F 90% 29.29 in 12 mi SSE 26.8 mph - - Rain Light Rain
11:00 PM 46.4 °F 37.5 °F 44.6 °F 93% 29.27 in 6.2 mi SSE 27.6 mph 39.1 mph N/A   Mostly Cloudy
11:30 PM 46.4 °F 37.7 °F 44.6 °F 93% 29.24 in 6.2 mi SSE 26.5 mph 42.6 mph N/A   Mostly Cloudy